World > North America > United States > New York > Shelter Island

Hourly Shelter Island, NY Regional Weather

Feedback E-mail the Weather

Quick WX

Shelter Island, NY Weather Maps

°F °C°F °C
Shelter Island Weather Map
UTC Time: 8/12/2022, 13:10
Your Time:

Shelter Island, NY Regional Weather

Expires:202208121400;;968269
ASUS41 KALY 121310
RWRALY

NEW YORK STATE HOURLY WEATHER ROUNDUP
NATIONAL WEATHER SERVICE ALBANY NY
900 AM EDT FRI AUG 12 2022

NOTE: "FAIR" INDICATES FEW OR NO CLOUDS BELOW 12,000 FEET WITH NO
SIGNIFICANT WEATHER AND/OR NO OBSTRUCTIONS TO VISIBILITY.


NYZ032-033-038>043-046>054-057>066-NYZ062>081-082-084-121400-
EAST

  
CITY           SKY/WX    TMP DP  RH WIND       PRES   REMARKS
ALBANY         MOSUNNY   67  55  65 NW7       30.07R                  
GLENS FALLS    SUNNY     65  53  65 N9        30.07R                  
POUGHKEEPSIE   SUNNY     71  54  54 N9        30.03S                  
NEWBURGH       MOSUNNY   70  54  56 NE16      30.05R                  
MONTGOMERY     SUNNY     70  53  54 NE12      30.04R                  
WHITE PLAINS   MOSUNNY   72  58  61 N9        30.01R                  
ISLIP          PTSUNNY   73  57  57 N13       29.97R                  
NEW YORK CITY  PTSUNNY   73  56  54 N13G18    30.00R                  
CENTRAL PARK   MOSUNNY   74  56  53 NE8       30.04R                  
$$


SKY/WX - Weather  TMP - Temperature  DP - Dew Point  RH - Humidity
WIND - Wind Direction/Speed PRES - Barometric Pressure VSB - Visibility
WCI - Wind Chill Index E13G22 Wind - East Wind 13 mph/Gusts of 22 mph

Trending Headlines

Shelter Island Radar Loop



Shelter Island Quick Facts


National Two Day Weather Forecast


E-mail the Shelter Island Weather Forecast

Voice your opinion or tell us about page issues...